www.pogodaiklimat.ru

Погода и климат >> Архив погоды >> Россия >> город Севастополь >> Севастополь


АРХИВ ПОГОДЫ в Севастополе

Время (UTC), дата Ветер
(напр.,м/с)
 
Видим.   Явления Облачность Т
(С)
Тd
(С)
f
(%)
Тe
(С)
Тes
(С)
Комфортность P
(гПа)
Po
(гПа)
Тmin
(С)
Tmax
(С)
R
(мм)
S
(см)
18 18.03 Ю 5 20 км 10 баллов +7.3 +2.8 73 +4 +4 по сезону 1011.4 1010.7 +9.4
21 18.03 Ю 6 10 км слабый ливневой дождь 10 баллов +7.1 +3.7 79 +3 +3 по сезону 1008.7 1008.0
00 19.03 Ю 6 10 км слабый ливневой дождь 10 баллов +6.7 +4.4 85 +2 +2 по сезону 1007.4 1006.7
03 19.03 Ю 7 10 км слабый ливневой дождь 10 баллов +7.1 +5.2 88 +2 +2 по сезону 1004.7 1004.0 +6.7 9
06 19.03 Ю 6 4000 м слабый ливневой дождь 10 баллов +7.9 +5.7 86 +4 +4 по сезону 1004.7 1004.0 +6.7 12
09 19.03 Ю 5 20 км 10 баллов +9.3 +6.7 84 +6 +6 по сезону 1003.4 1002.7
12 19.03 З 5 20 км 7 баллов +12.1 +6.8 70 +10 +11 тепло 1003.4 1002.7
15 19.03 СЗ 2 10 км слабый ливневой дождь 10 баллов +8.6 +5.7 82 +7 +7 по сезону 1003.4 1002.7 4
18 19.03 С 4 10 км слабый ливневой дождь 10 баллов +6.3 +4.0 85 +3 +3 по сезону 1004.7 1004.0 +12.4 4
21 19.03 С 5 20 км в посл. час ливневой дождь 7 баллов +6.7 +3.8 82 +3 +3 по сезону 1004.7 1004.0
00 20.03 С 6 20 км 7 баллов +6.5 +1.0 68 +2 +2 по сезону 1007.4 1006.7
03 20.03 С 6 20 км 7 баллов +6.6 +1.3 69 +2 +2 по сезону 1008.7 1008.0 +6.0 5
06 20.03 СЗ 6 20 км 10 баллов +6.5 +1.8 72 +2 +2 по сезону 1010.0 1009.3 +6.0 2
09 20.03 В 7 20 км 10 баллов +7.2 +1.7 68 +3 +3 по сезону 1011.4 1010.7
12 20.03 З 6 20 км 10 баллов +7.7 +2.2 68 +4 +4 по сезону 1012.7 1012.0
15 20.03 З 5 20 км 4 балла +7.8 +2.9 71 +4 +4 по сезону 1012.7 1012.0 0.0
18 20.03 В 1 20 км 6 баллов +6.1 +2.7 79 +5 +5 по сезону 1014.0 1013.3 +8.3
21 20.03 В 2 20 км 7 баллов +4.9 +2.9 87 +2 +2 по сезону 1015.4 1014.7
00 21.03 В 3 20 км 10 баллов +4.2 +2.2 87 +1 +1 по сезону 1015.4 1014.7
03 21.03 В 3 20 км 10 баллов +4.6 +2.5 86 +1 +1 по сезону 1015.4 1014.7 +4.0
06 21.03 В 2 20 км 9 баллов +6.4 +3.0 79 +4 +5 по сезону 1016.7 1016.0 +4.0
09 21.03 З 3 20 км 4 балла +9.8 +5.8 76 +8 +13 по сезону 1016.7 1016.0
12 21.03 ЮЗ 4 20 км 6 баллов +13.4 +5.8 60 +12 +14 тепло 1016.7 1016.0
15 21.03 ЮЗ 3 20 км 7 баллов +11.8 +5.4 65 +10 +10 тепло 1016.7 1016.0
18 21.03 В 2 20 км 4 балла +7.4 +4.7 83 +5 +5 по сезону 1018.0 1017.3 +13.7
21 21.03 В 2 20 км 2 балла +4.3 +2.0 85 +2 +2 по сезону 1019.5 1018.7
00 22.03 штиль 0 20 км ясно +3.8 +1.5 85 +3 +3 по сезону 1019.5 1018.7
03 22.03 В 3 20 км ясно +2.0 +0.1 87 -2 -2 прохладно 1020.8 1020.0 +2.0
06 22.03 В 2 20 км ясно +4.8 +1.5 79 +2 +6 по сезону 1022.1 1021.3 +1.8
09 22.03 З 4 20 км 1 балл +10.5 +3.1 60 +8 +15 по сезону 1022.0 1021.3
12 22.03 З 4 20 км 1 балл +11.2 +2.7 56 +9 +14 по сезону 1022.0 1021.3
15 22.03 Ю 3 20 км ясно +11.8 +2.8 54 +10 +11 тепло 1022.0 1021.3
18 22.03 В 3 20 км ясно +7.1 +0.5 63 +5 +5 по сезону 1023.4 1022.7 +12.6
21 22.03 В 4 20 км ясно +4.6 +0.9 77 +1 +1 по сезону 1023.5 1022.7
00 23.03 В 3 20 км ясно +2.6 -0.2 82 -1 -1 по сезону 1024.8 1024.0
03 23.03 В 3 20 км 1 балл +2.1 -0.6 82 -2 -2 прохладно 1023.5 1022.7 +2.0
06 23.03 В 3 10 км ясно +4.7 +0.8 76 +1 +5 прохладно 1024.8 1024.0 +1.8
09 23.03 З 3 20 км ясно +9.9 +4.9 71 +8 +18 опасность
простуды
1026.0 1025.3
12 23.03 З 4 20 км ясно +10.5 +5.7 72 +8 +14 по сезону 1026.0 1025.3
15 23.03 З 4 20 км ясно +10.9 +4.8 66 +9 +9 тепло 1026.0 1025.3
18 23.03 СВ 1 20 км ясно +8.4 +5.0 79 +8 +8 тепло 1027.4 1026.7 +11.3
21 23.03 В 2 20 км ясно +5.7 +0.9 71 +3 +3 по сезону 1027.5 1026.7
00 24.03 В 2 20 км ясно +4.0 +0.3 77 +1 +1 по сезону 1027.5 1026.7
03 24.03 штиль 0 20 км ясно +3.3 +0.4 81 +2 +2 по сезону 1027.5 1026.7 +3.2
06 24.03 В 3 20 км 2 балла +6.7 +3.0 77 +4 +6 по сезону 1027.5 1026.7 +3.2
09 24.03 ЮЗ 3 20 км 4 балла +14.1 +5.2 55 +13 +19 тепло 1027.4 1026.7
12 24.03 ЮЗ 5 20 км 2 балла +14.9 +5.4 53 +14 +17 тепло 1026.0 1025.3
15 24.03 ЮЗ 3 20 км 10 баллов +12.2 +4.4 59 +11 +11 тепло 1024.7 1024.0
18 24.03 ЮВ 2 20 км 6 баллов +9.9 +5.5 74 +8 +8 тепло 1023.4 1022.7 +15.1
21 24.03 Ю 1 20 км ясно +7.7 +5.2 84 +7 +7 тепло 1023.4 1022.7
00 25.03 ЮВ 2 4000 м дымка 10 баллов +6.6 +5.1 90 +4 +4 по сезону 1023.4 1022.7
03 25.03 В 1 1000 м дымка 10 баллов +5.7 +4.3 91 +4 +4 по сезону 1022.0 1021.3 +5.6
06 25.03 Ю 2 10 км слабый ливневой дождь 10 баллов +6.4 +4.2 86 +4 +4 по сезону 1022.0 1021.3 +5.1 0.4
09 25.03 С 2 10 км 10 баллов +9.0 +7.0 87 +7 +7 по сезону 1020.7 1020.0
12 25.03 С 3 10 км 10 баллов +9.2 +7.3 88 +7 +7 по сезону 1020.7 1020.0

 

Местоположение метеостанции Севастополь (город Севастополь, Россия): широта 44.62 долгота 33.53 высота над уровнем моря 6 м.

В архиве по умолчанию представлена погода в Севастополе за последнюю неделю. Архивные данные за месяц целиком и за предыдущие месяцы, начиная с января 2011 года, Вы можете получить, выбрав интересующий диапазон дат из раскрывающегося списка и нажав кнопку "Ввод!".

Внимание! Время в таблицах - всемирное. Для получения местного времени необходимо прибавить поправку, которая в Севастополе равна 3 ч.

Смотрите также архив погоды в соседних городах и на ближайших метеорологических станциях:

Погода в Херсонесском Маяке (город Севастополь, Россия) (13 км)
Погода в Ай-Петри (Крым, Россия) (47 км)
Погода в Ялте (Крым, Россия) (53 км)
Погода в Симферополе (Крым, Россия) (57 км)
Погода в Никитском саду (Крым, Россия) (58 км)
Погода в Евпатории (Крым, Россия) (64 км)
Погода в Алуште (Крым, Россия) (69 км)
Погода в Белогорске (Крым, Россия) (97 км)
Погода в Клепинино (Крым, Россия) (113 км)
Погода в Черноморском (Крым, Россия) (119 км)

Пояснения к столбцам:

Ветер - указаны скорость ветра в м/с - средняя за 10 мин, порывы в срок и между сроками (в фигурных скобках) и направление, откуда дует ветер: С - северный, СВ - северо-восточный, В - восточный, ЮВ - юго-восточный, Ю - южный, ЮЗ - юго-западный, З - западный, СЗ - северо-западный.
Видимость - горизонтальная дальность видимости в метрах или километрах. При видимости от 1 до 10 км при отсутствии осадков обычно наблюдается дымка, при ухудшении видимости до 1 км и менее - туман. В сухую погоду видимость может ухудшаться дымом, пылью или мглою.
Явления - указаны атмосферные явления, наблюдавшиеся в срок или в последний час перед сроком; фигурными скобками обозначены явления, наблюдавшиеся между сроками (за 1-3 часа до срока); квадратными скобками обозначены град или гололедные отложения с указанием их диаметра в мм.
Облачность - указаны через наклонную черту общая и нижняя облачность в баллах и высота нижней границы облаков в метрах; квадратными скобками обозначены формы облаков: Ci - перистые, Cs - перисто-слоистые, Cc - перисто-кучевые, Ac - высококучевые, As - высокослоистые, Sc - слоисто-кучевые, Ns - слоисто-дождевые, Cu - кучевые, Cb - кучево-дождевые. Подробнее классификацию облаков см. в Атласе облаков (PDF).
T - Температура воздуха - температура, измеренная на высоте 2 м над землей.
Td - Температура точки росы - температура, при понижении до которой содержащийся в воздухе водяной пар достигнет насыщения.
f - Относительная влажность воздуха - влажноcть воздуха, измеренная на высоте 2 м над землей.
Te - Эффективная температура - температура, которую ощущает одетый по сезону человек в тени. Характеристика душности погоды. При расчете учитывается влияние влажности воздуха и скорости ветра на теплоощущения человека.
Tes - Эффективная температура на солнце - температура, которую ощущает человек, с поправкой на солнечный нагрев. Характеристика знойности погоды. Зависит от высоты солнца над горизонтом, облачности и скорости ветра. Ночью, в пасмурную погоду, а также при ветре 12 м/с и более поправка равна нулю.
P - Атмосферное давление - приведенное к уровню моря атмосферное давление.
Po - Атмосферное давление - измеренное на уровне метеостанции атмосферное давление.
Tmin - Минимальная температура - минимум температуры воздуха на высоте 2 м над землей.
Tmax - Максимальная температура - максимум температуры воздуха на высоте 2 м над землей.
R - Количество осадков - Количество выпавших осадков, мм. При наведении курсора мыши на число - период времени, за который выпало указанное количество осадков.
S - Снежный покров - Высота снежного покрова, см. При наведении курсора мыши на число - состояние снежного покрова и степень покрытия местности в баллах.